View from above orbital plane
|
View from above satellite
|
Ground track
|
The orbit data is extracted from the following two-line orbital elements,
1 14453U 83109B 21021.02779141 .00000014 00000-0 74195-6 0 9992
2 14453 81.1646 224.5009 0104191 222.1421 137.1715 14.24742264934532
Epoch (UTC): | 21 January 2021 00:40:01 |
Eccentricity: | 0.0104191 |
inclination: | 81.1646° |
perigee height: | 734 km |
apogee height: | 884 km |
right ascension of ascending node: | 224.5009° |
argument of perigee: | 222.1421° |
revolutions per day: | 14.24742264 |
mean anomaly at epoch: | 137.1715° |
orbit number at epoch: | 93453 |
The dashed part of the orbit path shows where the satellite is in the earth's shadow,
|
|